Arlington, TX

12:01 AM CST on February 21, 2017 (GMT -0600)
Arlington Municipal

Weather History for KGKY - February, 2014

Change the Weather History Date:

Saturday, February 22, 2014

  Actual Average (KRBD) Record (KRBD)
Temperature  
Mean Temperature 60 °F -  
Max Temperature 73 °F 58 °F 80 °F (2007)
Min Temperature 46 °F 40 °F 28 °F (2015)
Degree Days  
Heating Degree Days 6    
Growing Degree Days 10 (Base 50)    
Moisture  
Dew Point 41 °F    
Average Humidity 47    
Maximum Humidity 72    
Minimum Humidity 34    
Precipitation  
Precipitation 0.00 in - - ()
Sea Level Pressure  
Sea Level Pressure 29.91 in    
Wind  
Wind Speed 12 mph (SSE)    
Max Wind Speed 18 mph    
Max Gust Speed 25 mph    
Visibility 10 miles    
Events      
Averages and records for this station are not official NWS values.
T = Trace of Precipitation, MM = Missing Value Source: NWS Daily Summary

Daily Weather History Graph

Daily Weather History Graph

Search for Another Location

Airport or City:

Trip Planner

Search our weather history database for the weather conditions in past years. The results will help you decide how hot, cold, wet, or windy it might be!

Date:

Astronomy

Feb. 22, 2014 Rise Set
Actual Time 7:04 AM CST 6:20 PM CST
Civil Twilight 6:39 AM CST 6:44 PM CST
Nautical Twilight 6:10 AM CST 7:13 PM CST
Astronomical Twilight 5:41 AM CST 7:42 PM CST
Moon 12:52 AM CST (2/22) 11:40 AM CST (2/22)
Length of Visible Light 12h 05m
Length of Day
11h 16m
Waning Gibbous, 50% of the Moon is Illuminated
Feb 22
Waning Gibbous
Mar 1
New
Mar 8
First Quarter
Mar 16
Full
Mar 23
Last Quarter

Hourly Weather History & Observations

Time (CST) Temp. Dew Point Humidity Pressure Visibility Wind Dir Wind Speed Gust Speed Precip Events Conditions
12:53 AM 55.0 °F 30.0 °F 38% 30.00 in 10.0 mi SSE 13.8 mph - N/A   Clear
1:53 AM 53.1 °F 30.9 °F 43% 30.00 in 10.0 mi South 10.4 mph - N/A   Clear
2:53 AM 53.1 °F 30.0 °F 41% 29.98 in 10.0 mi South 10.4 mph 19.6 mph N/A   Clear
3:53 AM 52.0 °F 30.9 °F 45% 29.97 in 10.0 mi South 9.2 mph 19.6 mph N/A   Clear
4:53 AM 50.0 °F 30.9 °F 48% 29.97 in 10.0 mi South 11.5 mph 18.4 mph N/A   Clear
5:53 AM 48.9 °F 30.0 °F 48% 29.98 in 10.0 mi South 10.4 mph - N/A   Clear
6:53 AM 46.9 °F 28.9 °F 50% 29.99 in 10.0 mi SSE 5.8 mph - N/A   Clear
7:53 AM 46.9 °F 28.9 °F 50% 29.99 in 10.0 mi SSE 8.1 mph - N/A   Clear
8:53 AM 53.1 °F 34.0 °F 48% 29.99 in 10.0 mi South 10.4 mph - N/A   Clear
9:53 AM 57.9 °F 39.9 °F 51% 29.98 in 10.0 mi South 13.8 mph 24.2 mph N/A   Clear
10:53 AM 62.1 °F 44.1 °F 52% 29.97 in 10.0 mi South 13.8 mph 23.0 mph N/A   Clear
11:53 AM 68.0 °F 45.0 °F 43% 29.93 in 10.0 mi SSE 17.3 mph 24.2 mph N/A   Clear
12:53 PM 69.1 °F 45.0 °F 42% 29.88 in 10.0 mi South 13.8 mph 24.2 mph N/A   Clear
1:53 PM 72.0 °F 46.0 °F 40% 29.84 in 10.0 mi SSE 18.4 mph 25.3 mph N/A   Clear
2:53 PM 73.0 °F 46.9 °F 39% 29.82 in 10.0 mi South 15.0 mph 23.0 mph N/A   Clear
3:53 PM 73.9 °F 45.0 °F 35% 29.81 in 10.0 mi SSW 12.7 mph 23.0 mph N/A   Clear
4:53 PM 73.9 °F 44.1 °F 34% 29.79 in 10.0 mi South 15.0 mph 23.0 mph N/A   Clear
5:53 PM 72.0 °F 44.1 °F 37% 29.80 in 10.0 mi South 13.8 mph 20.7 mph N/A   Clear
6:53 PM 68.0 °F 46.0 °F 45% 29.81 in 10.0 mi SSE 6.9 mph - N/A   Clear
7:53 PM 66.0 °F 46.9 °F 50% 29.83 in 10.0 mi SSE 6.9 mph - N/A   Clear
8:53 PM 66.0 °F 50.0 °F 56% 29.85 in 10.0 mi SSE 12.7 mph - N/A   Clear
9:53 PM 64.0 °F 51.1 °F 63% 29.86 in 10.0 mi SSE 9.2 mph - N/A   Clear
10:53 PM 62.1 °F 52.0 °F 70% 29.86 in 10.0 mi SSE 8.1 mph - N/A   Clear
11:53 PM 61.0 °F 52.0 °F 72% 29.86 in 10.0 mi SSE 10.4 mph - N/A   Clear